SP9INZ-13 Weather Reports


time (UTC)temp
C
wind
direction
speed
KPH
gust
KPH
rain 1hr
cm
rain 24hr
cm
rain mn
cm
humidity
%
barometer
mb
20260507120313 21 0.0 0.0 0.00 0.00 0.00 54 1011.7
20260507114716 21 0.0 0.0 0.00 0.00 0.00 56 1011.9
20260507113117 23 0.0 0.0 0.00 0.00 0.00 53 1011.3
20260507111519 21 0.0 0.0 0.00 0.00 0.00 59 1011.8
20260507105921 21 0.0 0.0 0.00 0.00 0.00 60 1011.7
20260507104323 21 0.0 0.0 0.00 0.00 0.00 59 1011.3
20260507102725 20 0.0 0.0 0.00 0.00 0.00 63 1010.9
20260507101127 20 0.0 0.0 0.00 0.00 0.00 62 1010.6
20260507095529 19 0.0 0.0 0.00 0.00 0.00 66 1010.6
20260507093931 19 0.0 0.0 0.00 0.00 0.00 66 1009.7
20260507092333 18 0.0 0.0 0.00 0.00 0.00 68 1009.7
20260507090736 18 0.0 0.0 0.00 0.00 0.00 70 1009.0
20260507085137 18 0.0 0.0 0.00 0.00 0.00 69 1008.7
20260507083539 18 0.0 0.0 0.00 0.00 0.00 70 1008.4
20260507081941 18 0.0 0.0 0.00 0.00 0.00 72 1007.9
20260507080343 18 0.0 0.0 0.00 0.00 0.00 73 1008.0
20260507074745 17 0.0 0.0 0.00 0.00 0.00 74 1007.8
20260507073148 17 0.0 0.0 0.00 0.00 0.00 75 1007.5
20260507071549 17 0.0 0.0 0.00 0.00 0.00 75 1006.9
20260507065952 17 0.0 0.0 0.00 0.00 0.00 74 1006.9
20260507064353 17 0.0 0.0 0.00 0.00 0.00 76 1007.0
20260507062755 16 0.0 0.0 0.00 0.00 0.00 76 1007.2
20260507061157 16 0.0 0.0 0.00 0.00 0.00 77 1006.9
20260507055559 16 0.0 0.0 0.00 0.00 0.00 76 1006.6
20260507054001 16 0.0 0.0 0.00 0.00 0.00 74 1006.7
20260507052403 17 0.0 0.0 0.00 0.00 0.00 73 1006.8
20260507050805 17 0.0 0.0 0.00 0.00 0.00 69 1006.8
20260507045208 17 0.0 0.0 0.00 0.00 0.00 69 1006.8
20260507043610 18 0.0 0.0 0.00 0.00 0.00 66 1006.6
20260507042011 17 0.0 0.0 0.00 0.00 0.00 68 1006.6
20260507040519 18 0.0 0.0 0.00 0.00 0.00 66 1006.5
20260507040414 18 0.0 0.0 0.00 0.00 0.00 66 1006.5
20260507034823 18 0.0 0.0 0.00 0.00 0.00 66 1006.7
20260507034815 18 0.0 0.0 0.00 0.00 0.00 66 1006.7
20260507033217 18 0.0 0.0 0.00 0.00 0.00 65 1006.2
20260507031619 18 0.0 0.0 0.00 0.00 0.00 66 1006.3
20260507030021 18 0.0 0.0 0.00 0.00 0.00 65 1006.4
20260507024423 18 0.0 0.0 0.00 0.00 0.00 66 1006.3
20260507022825 18 0.0 0.0 0.00 0.00 0.00 65 1006.2
20260507021226 18 0.0 0.0 0.00 0.00 0.00 66 1006.1
20260507015629 18 0.0 0.0 0.00 0.00 0.00 65 1006.1
20260507014031 18 0.0 0.0 0.00 0.00 0.00 65 1006.2
20260507012433 18 0.0 0.0 0.00 0.00 0.00 64 1006.1
20260507010834 18 0.0 0.0 0.00 0.00 0.00 63 1005.9
20260507005237 18 0.0 0.0 0.00 0.00 0.00 64 1005.8
20260507003639 18 0.0 0.0 0.00 0.00 0.00 64 1005.9
20260507002041 18 0.0 0.0 0.00 0.00 0.00 63 1006.0
20260507000443 19 0.0 0.0 0.00 0.00 0.00 61 1006.1
20260506234853 19 0.0 0.0 0.00 0.00 0.00 62 1006.1
20260506234845 19 0.0 0.0 0.00 0.00 0.00 62 1006.1
20260506233247 19 0.0 0.0 0.00 0.00 0.00 61 1006.3
20260506231648 20 0.0 0.0 0.00 0.00 0.00 58 1006.4
20260506230052 20 0.0 0.0 0.00 0.00 0.00 58 1006.5
20260506224453 20 0.0 0.0 0.00 0.00 0.00 59 1006.6
20260506222856 20 0.0 0.0 0.00 0.00 0.00 59 1006.6
20260506221257 20 0.0 0.0 0.00 0.00 0.00 59 1006.6
20260506215659 20 0.0 0.0 0.00 0.00 0.00 58 1006.9
20260506214102 20 0.0 0.0 0.00 0.00 0.00 56 1006.7
20260506212503 20 0.0 0.0 0.00 0.00 0.00 56 1006.9
20260506210905 21 0.0 0.0 0.00 0.00 0.00 54 1006.6
20260506205321 21 0.0 0.0 0.00 0.00 0.00 55 1006.6
20260506205307 21 0.0 0.0 0.00 0.00 0.00 55 1006.6
20260506203711 21 0.0 0.0 0.00 0.00 0.00 55 1006.4
20260506202111 21 0.0 0.0 0.00 0.00 0.00 53 1006.5
20260506200513 21 0.0 0.0 0.00 0.00 0.00 55 1006.3
20260506194916 21 0.0 0.0 0.00 0.00 0.00 54 1006.0
20260506193317 21 0.0 0.0 0.00 0.00 0.00 55 1006.0
20260506191719 21 0.0 0.0 0.00 0.00 0.00 55 1005.9
20260506190122 21 0.0 0.0 0.00 0.00 0.00 56 1005.6
20260506184523 21 0.0 0.0 0.00 0.00 0.00 58 1005.1
20260506182925 21 0.0 0.0 0.00 0.00 0.00 58 1005.0
20260506181327 21 0.0 0.0 0.00 0.00 0.00 59 1004.9
20260506175729 23 0.0 0.0 0.00 0.00 0.00 55 1004.2
20260506174131 23 0.0 0.0 0.00 0.00 0.00 57 1003.9
20260506172533 25 0.0 0.0 0.00 0.00 0.00 51 1004.3
20260506170935 22 0.0 0.0 0.00 0.00 0.00 56 1004.9
20260506165338 22 0.0 0.0 0.00 0.00 0.00 55 1004.8
20260506163739 22 0.0 0.0 0.00 0.00 0.00 61 1003.6
20260506162523 21 0.0 0.0 0.00 0.00 0.00 51 1006.3
20260506162141 21 0.0 0.0 0.00 0.00 0.00 51 1006.3
20260506160544 21 0.0 0.0 0.00 0.00 0.00 50 1007.0
20260506154945 22 0.0 0.0 0.00 0.00 0.00 49 1006.5
20260506153347 23 0.0 0.0 0.00 0.00 0.00 48 1006.5
20260506151749 25 0.0 0.0 0.00 0.00 0.00 40 1006.6
20260506150151 25 0.0 0.0 0.00 0.00 0.00 40 1006.4
20260506144553 27 0.0 0.0 0.00 0.00 0.00 35 1005.7
20260506142955 25 0.0 0.0 0.00 0.00 0.00 37 1006.6
20260506141357 26 0.0 0.0 0.00 0.00 0.00 37 1006.3
20260506135759 26 0.0 0.0 0.00 0.00 0.00 36 1006.3
20260506134201 26 0.0 0.0 0.00 0.00 0.00 38 1006.0
20260506132603 25 0.0 0.0 0.00 0.00 0.00 39 1006.6
20260506131005 24 0.0 0.0 0.00 0.00 0.00 43 1006.6
20260506125407 24 0.0 0.0 0.00 0.00 0.00 44 1006.8
20260506123809 25 0.0 0.0 0.00 0.00 0.00 42 1006.6
20260506122211 25 0.0 0.0 0.00 0.00 0.00 42 1006.4